CZ-3C DEB, 40861

Orbit data source: Space-Track

CZ-3C DEB, 40861 is space debris in HEO originally from a launch on Fri, 24 Feb 2012 UTC launched from the Xichang Space Center, China (XSC). Debris objects in space refer to the collection of defunct objects orbiting the Earth. Examples of debris include non-operational satellites, rocket bodies, and fragments generated from explosions, collisions, or faulty payload assembly.

Loading next visibility...
Identifier
40861, 2012-008AB
Orbit
HEO
Country
Flag of CNCN / PRC
Related business
Manufacturer
CALT
Mission
Spacecraft
Bus & Motor
Unknown
Mass
Unknown
Launch date (UTC)
2012-02-24 (14 years ago)
Launch vehicle
Unknown
Launch site
Xichang Space Center, China (XSC)
Object type
Payload
Rocket body
Debris
Shape & HBR
Unknown
Radar Cross Section
Medium (>0.1 m² and <1 m²)

Expand to show TLE details & history
Last TLE update: 3 days ago

TLE from 3 days ago
0 CZ-3C DEB
1 40861U 12008AB  25239.45055618 -.00000103  00000-0  17709-2 0  9996
2 40861  20.7846  78.8794 7097128  90.8224 343.6883  2.28991177 89738
Epoch: 2025-08-27T10:48Z
TLE epoch observation values (Epoch: 2025-08-27T10:48:48.053Z)
Latitude
-0.00019°
Longitude
-59.12048°
Altitude
5,751.703 km
Speed
7.023 km/s
True Right ascension
05h 16m 01s
True Declination
0° 00' 01"
Sunlit
Object was in daylight at epoch
Visualization orbit readout
Latitude
Unknown
Longitude
Unknown
Altitude
Unknown
Speed
Unknown
Apparent Right ascension
Unknown
Apparent Declination
Unknown
Sunlit
N/A
Visualization observer readout
Local Sidereal Time
22:15:30
Azimuth
Unknown
Elevation
Unknown
Doppler factor
Unknown
Orbital elements
Apogee altitude
35,198.992 km
Perigee altitude
681.124 km
Semi-major axis
24,318.195 km
Eccentricity
0.70971
Inclination
20.7846°
RAAN
78.8794°
Arg. of periapsis
90.8224°
True anomaly
269.51568°
Mean anomaly
343.6883°
Eccentric anomaly
314.86933°
Mean motion
0.57233 °/min
Orbital period
629.01 mins
BSTAR
0.0017709
Loading maneuver chart data...
Computing Atmospheric mass density...
Loading historical data...
Loading historical data...
Loading historical data...
Loading historical data...
Loading historical data...
Loading historical data...
Loading historical data...

Documentation

Showing up to 5 results
|